Back to catalog

SL-24 DEB

AliveSSO
NORAD 36601·DEBRIS·🇷🇺 Russia

Launched Jun 15, 2010 from Dombarovsky

Loading…

Next Passes (next 24 hours)

TLE

FreshSource: Space-Track

Epoch: Sep 14, 2026, 12:23 UTC

1 36601U 10028D   26257.51630742  .00000307  00000-0  86816-4 0  9990
2 36601  98.2967  97.3699 0018227 101.3728 258.9517 14.52015324858818

Track SL-24 DEB in real time with AllMySat

Download on the App Store